This demonstration page uses our WeatherBlox Daily Observations layout. Learn more.

Left ArrowRight Arrow

Hourly Observations for June 16, 2017

Temp ( °F °C ) Dew Point ( °F °C ) Humidity (%) Winds ( mph kmh ) Pressure ( in mb ) Visibility ( mi km ) Precip ( " mm )
12:53 am 00:53 Clear 58 14.4 45 7.2 62 62 SW 9 15 29.78 1008 10 16 0.00 0.00
1:53 am 01:53 Clear 55 12.8 45 7.2 69 69 SSW 6 9 29.77 1008 10 16 0.00 0.00
2:53 am 02:53 Clear 54 12.2 46 7.8 75 75 WSW 6 9 29.75 1008 10 16 0.00 0.00
3:53 am 03:53 Cloudy 57 13.9 47 8.3 69 69 SW 10 17 29.72 1006 10 16 0.00 0.00
4:53 am 04:53 Cloudy with Light Rain 55 12.8 50 10 83 83 WSW 8 13 29.73 1007 10 16 0.00 0.03
5:53 am 05:53 Cloudy with Light Rain 57 13.9 50 10 78 78 SSW 12 19 29.72 1007 10 16 0.00 0.03
6:53 am 06:53 Cloudy with Light Rain 56 13.3 52 11.1 87 87 SW 5 7 29.74 1007 10 16 0.01 0.25
7:53 am 07:53 Cloudy 59 15 53 11.7 81 81 SW 10 17 29.72 1007 10 16 0.00 0.03
8:53 am 08:53 Mostly Sunny 64 17.8 50 10 60 60 W 16 26 29.71 1006 10 16 0.00 0.00
9:53 am 09:53 Mostly Cloudy 70 21.1 47 8.3 44 44 W 22 35 29.71 1006 10 16 0.00 0.00
10:53 am 10:53 Cloudy 71 21.7 45 7.2 39 39 W 23 37 29.70 1006 10 16 0.00 0.00
11:53 am 11:53 Mostly Cloudy 72 22.2 43 6.1 35 35 W 22 35 29.69 1005 10 16 0.00 0.00
12:53 pm 12:53 Mostly Cloudy 74 23.3 42 5.6 32 32 W 22 35 29.68 1005 10 16 0.00 0.00
1:53 pm 13:53 Partly Cloudy 71 21.7 41 5 34 34 W 26 43 29.70 1006 10 16 0.00 0.00
2:53 pm 14:53 Mostly Cloudy 76 24.4 41 5 29 29 W 24 39 29.67 1005 10 16 0.00 0.00
3:53 pm 15:53 Cloudy with Light Rain 67 19.4 44 6.7 44 44 W 23 37 29.72 1006 10 16 0.00 0.03
4:53 pm 16:53 Mostly Cloudy 71 21.7 39 3.9 31 31 NW 29 46 29.68 1005 10 16 0.00 0.03
5:53 pm 17:53 Cloudy 69 20.6 42 5.6 38 38 WNW 17 28 29.69 1005 10 16 0.00 0.03
6:53 pm 18:53 Mostly Sunny 72 22.2 43 6.1 35 35 WNW 13 20 29.68 1005 10 16 0.00 0.03
7:53 pm 19:53 Mostly Sunny 70 21.1 40 4.4 34 34 NW 14 22 29.67 1005 10 16 0.00 0.00
8:53 pm 20:53 Sunny 66 18.9 44 6.7 45 45 W 16 26 29.68 1005 10 16 0.00 0.00
9:53 pm 21:53 Clear 61 16.1 45 7.2 56 56 W 9 15 29.70 1006 10 16 0.00 0.00
10:53 pm 22:53 Clear 60 15.6 45 7.2 58 58 W 9 15 29.71 1006 10 16 0.00 0.00
11:53 pm 23:53 Mostly Cloudy 57 13.9 46 7.8 67 67 SW 8 13 29.73 1007 10 16 0.00 0.00

Powered by AerisWeather